Regional Weather Roundup
Issued by NWS

Home | Current Version | Previous Version | Text Only | Print | Product List | Glossary Off
Versions: 1 2 3 4 5 6 7 8 9 10 11 12 13 14 15 16 17 18 19 20 21 22 23 24 25 26 27 28 29 30 31 32 33 34 35 36 37 38 39 40 41 42 43 44 45 46 47 48 49 50

293
ASUS43 KFSD 292210
RWRSD

WEATHER ROUNDUP FOR SOUTH DAKOTA
NATIONAL WEATHER SERVICE SIOUX FALLS SD
500 PM CDT SAT APR 29 2017

NOTE: "FAIR" INDICATES FEW OR NO CLOUDS BELOW 12,000 FEET WITH NO
SIGNIFICANT WEATHER AND/OR OBSTRUCTIONS TO VISIBILITY.


SDZ001>005-009-010-012>017-292300-
NORTHWEST AND NORTH CENTRAL SOUTH DAKOTA

CITY           SKY/WX    TMP DP  RH WIND       PRES   REMARKS
BUFFALO          N/A     58  17  20 E5        30.13F
FAITH            N/A     56  15  20 NE7       30.20F
MOBRIDGE       SUNNY     62  14  15 VRB6      30.19F
$$

SDZ012>016-024>037-041>051-057-063-072>074-292300-
SOUTHWEST AND SOUTH CENTRAL SOUTH DAKOTA

CITY           SKY/WX    TMP DP  RH WIND       PRES   REMARKS
RAPID CTY ARPT MOSUNNY   54  18  24 E8G20     30.19F
PIERRE         SUNNY     59  16  18 NE16G23   30.17F
CUSTER         SUNNY     42  14  32 NE12      30.17F
ELLSWORTH AFB  SUNNY     54  16  22 NE8       30.19F
PHILIP         SUNNY     57  20  23 NE17      30.18F
PINE RIDGE     PTSUNNY   51  20  29 NE17      30.18F
SPEARFISH      FAIR      50  19  29 NE10      30.21F
WINNER         FAIR      56  20  24 NE18G31   30.15F
$$

SDZ004>011-016>023-039-040-292300-
NORTHEAST SOUTH DAKOTA

CITY           SKY/WX    TMP DP  RH WIND       PRES   REMARKS
ABERDEEN       SUNNY     59  16  18 NE10      30.24F
WATERTOWN      MOSUNNY   53  25  33 NE15      30.21F
SISSETON         N/A     57  21  24 NE8       30.24F
$$

SDZ017-020-022-023-036>040-048>070-292300-
SOUTHEAST SOUTH DAKOTA

CITY           SKY/WX    TMP DP  RH WIND       PRES   REMARKS
SIOUX FALLS    CLOUDY    53  23  31 NE23G30   30.12F
HURON          MOSUNNY   57  21  24 NE20G25   30.18F
CHAMBERLAIN    SUNNY     58  20  22 N14G24    30.15F
MITCHELL       CLOUDY    56  19  23 NE18G26   30.16F
YANKTON        CLOUDY    52  21  30 NE23      30.09F
$$

ABBREVIATIONS USED IN REMARKS
   TC - TEMPERATURE IN CELSIUS
  WCI - WIND CHILL INDEX
   HX - HEAT INDEX
  VSB - VISIBILITY





USA.gov is the U.S. government's official web portal to all federal, state and local government web resources and services.